Wetterdaten: Samstag, 21.02.2015
Datum Zeit Temp. A. Mod.Schuppen Waschkche Feuchte A. Luftdruck Regen Wind Richtung Richtung Sonnenschein Helligkeit Solar
21.02.2015 00:03 6,3 C 5,4 C 6,3 C 83 % 998,0 hPa 0,0 l/m 17,2 km/h (3 Bft) S22.5 180 0 min 0 lux 0 W/m
21.02.2015 00:09 6,2 C 5,4 C 6,3 C 84 % 998,0 hPa 0,4 l/m 18,5 km/h (3 Bft) S22.5 185 0 min 0 lux 0 W/m
21.02.2015 00:14 6,2 C 5,4 C 6,3 C 84 % 998,0 hPa 0,0 l/m 21,8 km/h (4 Bft) S45 180 0 min 0 lux 0 W/m
21.02.2015 00:19 6,2 C 5,4 C 6,3 C 84 % 998,0 hPa 0,0 l/m 19,7 km/h (3 Bft) S22.5 185 0 min 0 lux 0 W/m
21.02.2015 00:24 6,2 C 5,4 C 6,3 C 84 % 998,0 hPa 0,0 l/m 24,6 km/h (4 Bft) S22.5 180 0 min 0 lux 0 W/m
21.02.2015 00:28 6,2 C 5,3 C 6,3 C 84 % 998,0 hPa 0,4 l/m 19,3 km/h (3 Bft) S45 175 0 min 0 lux 0 W/m
21.02.2015 00:33 6,2 C 5,4 C 6,3 C 84 % 998,0 hPa 0,0 l/m 23,8 km/h (4 Bft) S45 180 0 min 0 lux 0 W/m
21.02.2015 00:38 6,2 C 5,5 C 6,3 C 84 % 998,0 hPa 0,0 l/m 21,0 km/h (4 Bft) S45 185 0 min 0 lux 0 W/m
21.02.2015 00:44 6,2 C 5,4 C 6,3 C 84 % 997,0 hPa 0,0 l/m 22,1 km/h (4 Bft) S45 185 0 min 0 lux 0 W/m
21.02.2015 00:49 6,2 C 5,4 C 6,3 C 84 % 997,0 hPa 0,0 l/m 21,8 km/h (4 Bft) S22.5 180 0 min 0 lux 0 W/m
21.02.2015 00:54 6,2 C 5,4 C 6,3 C 84 % 997,0 hPa 0,0 l/m 21,0 km/h (4 Bft) S45 185 0 min 0 lux 0 W/m
21.02.2015 00:59 6,2 C 5,2 C 6,3 C 84 % 997,0 hPa 0,0 l/m 18,5 km/h (3 Bft) S22.5 180 0 min 0 lux 0 W/m
21.02.2015 01:03 6,1 C 5,3 C 6,3 C 84 % 997,0 hPa 0,0 l/m 24,3 km/h (4 Bft) S22.5 180 0 min 0 lux 0 W/m
21.02.2015 01:08 6,1 C 5,2 C 6,3 C 84 % 997,0 hPa 0,0 l/m 15,0 km/h (3 Bft) S22.5 175 0 min 0 lux 0 W/m
21.02.2015 01:14 6,0 C 5,2 C 6,3 C 85 % 997,0 hPa 0,4 l/m 15,9 km/h (3 Bft) S-SO45 150 0 min 0 lux 0 W/m
21.02.2015 01:19 6,0 C 5,2 C 6,3 C 85 % 997,0 hPa 0,0 l/m 10,8 km/h (2 Bft) S-SO22.5 165 0 min 0 lux 0 W/m
21.02.2015 01:24 5,9 C 5,2 C 6,3 C 86 % 997,0 hPa 0,0 l/m 13,8 km/h (3 Bft) S-SO45 165 0 min 0 lux 0 W/m
21.02.2015 01:29 5,9 C 5,1 C 6,3 C 86 % 997,0 hPa 0,0 l/m 12,4 km/h (2 Bft) S-SO22.5 160 0 min 0 lux 0 W/m
21.02.2015 01:33 5,8 C 5,1 C 6,3 C 86 % 997,0 hPa 0,0 l/m 14,4 km/h (3 Bft) S-SO22.5 165 0 min 0 lux 0 W/m
21.02.2015 01:38 5,8 C 5,1 C 6,3 C 86 % 996,0 hPa 0,0 l/m 13,7 km/h (3 Bft) S22.5 170 0 min 0 lux 0 W/m
21.02.2015 01:43 5,8 C 5,1 C 6,3 C 86 % 996,0 hPa 0,0 l/m 11,8 km/h (2 Bft) S-SO22.5 165 0 min 0 lux 0 W/m
21.02.2015 01:49 5,8 C 5,1 C 6,3 C 86 % 996,0 hPa 0,4 l/m 12,1 km/h (2 Bft) S22.5 175 0 min 0 lux 0 W/m
21.02.2015 01:54 5,8 C 5,1 C 6,3 C 87 % 996,0 hPa 0,0 l/m 11,6 km/h (2 Bft) S22.5 170 0 min 0 lux 0 W/m
21.02.2015 01:59 5,8 C 5,1 C 6,3 C 87 % 996,0 hPa 0,0 l/m 12,2 km/h (2 Bft) S22.5 185 0 min 0 lux 0 W/m
21.02.2015 02:03 5,8 C 5,1 C 6,3 C 87 % 996,0 hPa 0,0 l/m 11,4 km/h (2 Bft) S22.5 185 0 min 0 lux 0 W/m
21.02.2015 02:08 5,8 C 5,1 C 6,3 C 87 % 996,0 hPa 0,0 l/m 17,0 km/h (3 Bft) S45 175 0 min 0 lux 0 W/m
21.02.2015 02:13 5,8 C 5,1 C 6,3 C 87 % 996,0 hPa 0,0 l/m 17,8 km/h (3 Bft) S-SW45 195 0 min 0 lux 0 W/m
21.02.2015 02:19 5,9 C 5,1 C 6,3 C 86 % 996,0 hPa 0,0 l/m 18,0 km/h (3 Bft) S22.5 180 0 min 0 lux 0 W/m
21.02.2015 02:24 5,9 C 5,1 C 6,3 C 86 % 996,0 hPa 0,0 l/m 19,1 km/h (3 Bft) S45 185 0 min 0 lux 0 W/m
21.02.2015 02:29 5,9 C 5,2 C 6,3 C 86 % 996,0 hPa 0,0 l/m 15,5 km/h (3 Bft) S45 185 0 min 0 lux 0 W/m
21.02.2015 02:34 5,9 C 5,2 C 6,3 C 86 % 996,0 hPa 0,0 l/m 17,5 km/h (3 Bft) S22.5 185 0 min 0 lux 0 W/m
21.02.2015 02:38 5,9 C 5,2 C 6,3 C 86 % 996,0 hPa 0,0 l/m 17,8 km/h (3 Bft) S22.5 180 0 min 0 lux 0 W/m
21.02.2015 02:43 5,9 C 5,2 C 6,3 C 86 % 995,0 hPa 0,7 l/m 16,1 km/h (3 Bft) S22.5 185 0 min 0 lux 0 W/m
21.02.2015 02:48 5,9 C 5,2 C 6,3 C 86 % 995,0 hPa 0,0 l/m 18,0 km/h (3 Bft) S22.5 180 0 min 0 lux 0 W/m
21.02.2015 02:53 5,8 C 5,2 C 6,3 C 86 % 995,0 hPa 0,4 l/m 15,3 km/h (3 Bft) S22.5 180 0 min 0 lux 0 W/m
21.02.2015 02:59 5,8 C 5,1 C 6,3 C 86 % 995,0 hPa 0,0 l/m 15,0 km/h (3 Bft) S22.5 180 0 min 0 lux 0 W/m
21.02.2015 03:04 5,8 C 5,1 C 6,3 C 87 % 995,0 hPa 0,0 l/m 14,6 km/h (3 Bft) S45 180 0 min 0 lux 0 W/m
21.02.2015 03:08 5,8 C 5,0 C 6,3 C 87 % 995,0 hPa 0,0 l/m 15,9 km/h (3 Bft) S22.5 180 0 min 0 lux 0 W/m
21.02.2015 03:13 5,8 C 5,1 C 6,3 C 87 % 995,0 hPa 0,0 l/m 14,6 km/h (3 Bft) S45 180 0 min 0 lux 0 W/m
21.02.2015 03:18 5,8 C 5,0 C 6,3 C 87 % 995,0 hPa 0,0 l/m 19,8 km/h (3 Bft) S22.5 185 0 min 0 lux 0 W/m
21.02.2015 03:24 5,8 C 5,1 C 6,3 C 87 % 994,0 hPa 0,0 l/m 19,8 km/h (3 Bft) S22.5 185 0 min 0 lux 0 W/m
21.02.2015 03:29 5,8 C 5,1 C 6,3 C 87 % 994,0 hPa 0,0 l/m 17,7 km/h (3 Bft) S22.5 180 0 min 0 lux 0 W/m
21.02.2015 03:34 5,8 C 5,1 C 6,3 C 87 % 994,0 hPa 0,0 l/m 14,0 km/h (3 Bft) S45 180 0 min 0 lux 0 W/m
21.02.2015 03:39 5,8 C 5,1 C 6,3 C 87 % 994,0 hPa 0,0 l/m 14,5 km/h (3 Bft) S22.5 180 0 min 0 lux 0 W/m
21.02.2015 03:43 5,9 C 5,1 C 6,3 C 86 % 994,0 hPa 0,0 l/m 16,6 km/h (3 Bft) S45 180 0 min 0 lux 0 W/m
21.02.2015 03:48 5,9 C 5,1 C 6,3 C 86 % 994,0 hPa 0,0 l/m 20,5 km/h (4 Bft) S45 185 0 min 0 lux 0 W/m
21.02.2015 03:53 5,9 C 5,1 C 6,3 C 86 % 994,0 hPa 0,0 l/m 21,1 km/h (4 Bft) S45 185 0 min 0 lux 0 W/m
21.02.2015 03:58 6,0 C 5,2 C 6,3 C 86 % 994,0 hPa 0,0 l/m 20,0 km/h (4 Bft) S22.5 190 0 min 0 lux 0 W/m
21.02.2015 04:04 6,1 C 5,3 C 6,3 C 84 % 994,0 hPa 0,0 l/m 22,5 km/h (4 Bft) S22.5 190 0 min 0 lux 0 W/m
21.02.2015 04:09 6,2 C 5,3 C 6,3 C 84 % 994,0 hPa 0,0 l/m 28,3 km/h (5 Bft) S-SW45 200 0 min 0 lux 0 W/m
21.02.2015 04:13 6,3 C 5,3 C 6,3 C 83 % 994,0 hPa 0,0 l/m 29,6 km/h (5 Bft) S-SW45 205 0 min 0 lux 0 W/m
21.02.2015 04:18 6,4 C 5,5 C 6,3 C 82 % 994,0 hPa 0,0 l/m 28,4 km/h (5 Bft) S-SW45 200 0 min 0 lux 0 W/m
21.02.2015 04:23 6,4 C 5,5 C 6,3 C 82 % 994,0 hPa 0,4 l/m 33,3 km/h (5 Bft) S-SW67.5 210 0 min 0 lux 0 W/m
21.02.2015 04:29 6,4 C 5,5 C 6,3 C 82 % 994,0 hPa 0,0 l/m 31,9 km/h (5 Bft) S-SW22.5 210 0 min 0 lux 0 W/m
21.02.2015 04:34 6,4 C 5,5 C 6,3 C 82 % 994,0 hPa 0,0 l/m 28,8 km/h (5 Bft) S-SW22.5 205 0 min 0 lux 0 W/m
21.02.2015 04:39 6,4 C 5,5 C 6,3 C 81 % 994,0 hPa 0,0 l/m 28,8 km/h (5 Bft) SW22.5 215 0 min 0 lux 0 W/m
21.02.2015 04:44 6,4 C 5,5 C 6,3 C 81 % 994,0 hPa 0,0 l/m 29,3 km/h (5 Bft) S-SW22.5 210 0 min 0 lux 0 W/m
21.02.2015 04:49 6,4 C 5,6 C 6,3 C 82 % 994,0 hPa 0,0 l/m 29,8 km/h (5 Bft) SW45 220 0 min 0 lux 0 W/m
21.02.2015 04:53 6,3 C 5,5 C 6,3 C 82 % 994,0 hPa 0,0 l/m 34,8 km/h (5 Bft) S-SW22.5 210 0 min 0 lux 0 W/m
21.02.2015 04:58 6,3 C 5,5 C 6,3 C 82 % 994,0 hPa 0,0 l/m 36,1 km/h (5 Bft) SW45 215 0 min 0 lux 0 W/m
21.02.2015 05:03 6,2 C 5,5 C 6,3 C 83 % 994,0 hPa 0,0 l/m 29,6 km/h (5 Bft) SW45 225 0 min 0 lux 0 W/m
21.02.2015 05:09 6,2 C 5,5 C 6,3 C 83 % 994,0 hPa 0,0 l/m 28,6 km/h (5 Bft) SW45 215 0 min 0 lux 0 W/m
21.02.2015 05:14 6,0 C 5,4 C 6,3 C 83 % 994,0 hPa 0,0 l/m 29,4 km/h (5 Bft) SW67.5 215 0 min 0 lux 0 W/m
21.02.2015 05:18 6,0 C 5,4 C 6,3 C 83 % 994,0 hPa 0,0 l/m 34,8 km/h (5 Bft) SW67.5 220 0 min 0 lux 0 W/m
21.02.2015 05:23 5,9 C 5,3 C 6,3 C 83 % 994,0 hPa 0,0 l/m 32,9 km/h (5 Bft) SW67.5 235 0 min 0 lux 0 W/m
21.02.2015 05:28 5,6 C 5,2 C 6,3 C 84 % 994,0 hPa 0,0 l/m 37,0 km/h (5 Bft) SW45 225 0 min 0 lux 0 W/m
21.02.2015 05:34 5,1 C 4,9 C 6,3 C 84 % 994,0 hPa 0,0 l/m 44,7 km/h (6 Bft) W-SW45 250 0 min 0 lux 0 W/m
21.02.2015 05:39 4,2 C 4,1 C 6,3 C 86 % 994,0 hPa 0,0 l/m 42,0 km/h (6 Bft) W45 260 0 min 0 lux 0 W/m
21.02.2015 05:44 3,8 C 3,6 C 6,3 C 87 % 994,0 hPa 0,0 l/m 38,7 km/h (6 Bft) W22.5 280 0 min 0 lux 0 W/m
21.02.2015 05:49 3,6 C 3,4 C 6,3 C 87 % 994,0 hPa 0,0 l/m 38,9 km/h (6 Bft) W22.5 280 0 min 0 lux 0 W/m
21.02.2015 05:54 3,4 C 3,2 C 6,3 C 88 % 995,0 hPa 0,0 l/m 37,7 km/h (5 Bft) W-NW45 285 0 min 0 lux 0 W/m
21.02.2015 05:58 3,3 C 3,1 C 6,3 C 88 % 995,0 hPa 0,0 l/m 33,5 km/h (5 Bft) W22.5 275 0 min 0 lux 0 W/m
21.02.2015 06:04 3,3 C 3,0 C 6,3 C 88 % 995,0 hPa 0,0 l/m 36,3 km/h (5 Bft) W-NW45 290 0 min 0 lux 0 W/m
21.02.2015 06:09 3,2 C 3,0 C 6,2 C 88 % 995,0 hPa 0,0 l/m 32,0 km/h (5 Bft) W-NW22.5 300 0 min 0 lux 0 W/m
21.02.2015 06:14 3,1 C 2,9 C 6,2 C 87 % 995,0 hPa 0,0 l/m 28,3 km/h (5 Bft) W-NW22.5 300 0 min 0 lux 0 W/m
21.02.2015 06:19 3,1 C 2,8 C 6,2 C 87 % 995,0 hPa 0,0 l/m 33,6 km/h (5 Bft) NW22.5 305 0 min 0 lux 0 W/m
21.02.2015 06:23 3,1 C 2,8 C 6,2 C 87 % 995,0 hPa 0,0 l/m 30,3 km/h (5 Bft) W-NW45 300 0 min 0 lux 0 W/m
21.02.2015 06:28 3,1 C 2,7 C 6,2 C 87 % 995,0 hPa 0,0 l/m 33,0 km/h (5 Bft) W-NW22.5 300 0 min 0 lux 0 W/m
21.02.2015 06:33 3,1 C 2,7 C 6,2 C 87 % 995,0 hPa 0,0 l/m 29,2 km/h (5 Bft) NW22.5 310 0 min 0 lux 0 W/m
21.02.2015 06:39 3,1 C 2,7 C 6,2 C 87 % 996,0 hPa 0,0 l/m 31,6 km/h (5 Bft) W-NW22.5 285 0 min 0 lux 0 W/m
21.02.2015 06:44 3,1 C 2,7 C 6,2 C 87 % 996,0 hPa 0,0 l/m 30,7 km/h (5 Bft) W45 280 0 min 0 lux 0 W/m
21.02.2015 06:49 3,0 C 2,5 C 6,2 C 87 % 996,0 hPa 0,0 l/m 35,7 km/h (5 Bft) W45 280 0 min 0 lux 0 W/m
21.02.2015 06:54 3,0 C 2,2 C 6,2 C 87 % 996,0 hPa 0,0 l/m 32,9 km/h (5 Bft) W-NW45 285 0 min 0 lux 0 W/m
21.02.2015 06:59 2,9 C 2,1 C 6,1 C 87 % 996,0 hPa 0,0 l/m 27,0 km/h (5 Bft) W-NW22.5 295 0 min 0 lux 0 W/m
21.02.2015 07:03 2,8 C 2,0 C 6,2 C 87 % 996,0 hPa 0,0 l/m 26,1 km/h (4 Bft) W-NW22.5 295 0 min 0 lux 0 W/m
21.02.2015 07:09 2,8 C 1,8 C 6,1 C 86 % 996,0 hPa 0,0 l/m 21,8 km/h (4 Bft) W-NW22.5 295 0 min 0 lux 0 W/m
21.02.2015 07:14 2,8 C 1,7 C 6,1 C 86 % 996,0 hPa 0,0 l/m 28,8 km/h (5 Bft) W-NW45 290 0 min 0 lux 0 W/m
21.02.2015 07:19 2,7 C 1,7 C 6,1 C 86 % 996,0 hPa 0,0 l/m 21,3 km/h (4 Bft) W-NW45 295 0 min 0 lux 0 W/m
21.02.2015 07:24 2,8 C 1,7 C 6,1 C 86 % 996,0 hPa 0,0 l/m 23,4 km/h (4 Bft) W-NW22.5 285 0 min 48 lux 0 W/m
21.02.2015 07:28 2,8 C 1,7 C 6,1 C 86 % 996,0 hPa 0,0 l/m 20,5 km/h (4 Bft) W22.5 280 0 min 100 lux 0 W/m
21.02.2015 07:33 2,7 C 1,6 C 6,1 C 87 % 996,0 hPa 0,0 l/m 13,4 km/h (3 Bft) W-NW22.5 285 0 min 190 lux 0 W/m
21.02.2015 07:38 2,6 C 1,0 C 6,1 C 87 % 996,0 hPa 0,0 l/m 16,8 km/h (3 Bft) W22.5 280 0 min 325 lux 0 W/m
21.02.2015 07:44 2,6 C 0,7 C 6,1 C 87 % 996,0 hPa 0,0 l/m 13,5 km/h (3 Bft) W22.5 280 0 min 499 lux 3 W/m
21.02.2015 07:49 2,4 C 0,5 C 6,1 C 87 % 996,1 hPa 0,0 l/m 15,7 km/h (3 Bft) W22.5 275 0 min 700 lux 5 W/m
21.02.2015 07:54 2,3 C 0,3 C 6,1 C 88 % 996,1 hPa 0,0 l/m 13,9 km/h (3 Bft) W45 270 0 min 1,02 klux 7 W/m
21.02.2015 07:59 2,3 C 0,3 C 6,1 C 88 % 996,1 hPa 0,0 l/m 12,4 km/h (2 Bft) W22.5 260 0 min 1,29 klux 9 W/m
21.02.2015 08:03 2,3 C 0,5 C 6,1 C 88 % 997,1 hPa 0,0 l/m 16,6 km/h (3 Bft) W-SW22.5 245 0 min 1,01 klux 7 W/m
21.02.2015 08:09 2,4 C 1,2 C 6,1 C 89 % 997,1 hPa 0,0 l/m 15,6 km/h (3 Bft) W-SW22.5 245 0 min 1,04 klux 7 W/m
21.02.2015 08:14 2,6 C 1,9 C 6,1 C 89 % 997,1 hPa 0,0 l/m 16,5 km/h (3 Bft) W-SW45 245 0 min 548 lux 4 W/m
21.02.2015 08:19 2,7 C 2,0 C 6,1 C 89 % 997,0 hPa 0,0 l/m 23,1 km/h (4 Bft) W-SW45 245 0 min 562 lux 4 W/m
21.02.2015 08:24 2,7 C 2,2 C 6,1 C 89 % 997,0 hPa 0,0 l/m 18,0 km/h (3 Bft) W-SW22.5 250 0 min 654 lux 4 W/m
21.02.2015 08:29 2,7 C 2,3 C 6,1 C 88 % 997,0 hPa 0,0 l/m 18,6 km/h (3 Bft) W-SW22.5 255 0 min 654 lux 4 W/m
21.02.2015 08:33 2,8 C 2,5 C 6,1 C 88 % 997,0 hPa 0,0 l/m 17,0 km/h (3 Bft) W-SW22.5 250 0 min 1,06 klux 7 W/m
21.02.2015 08:38 2,9 C 2,6 C 6,1 C 88 % 997,0 hPa 0,0 l/m 21,2 km/h (4 Bft) W-SW45 245 0 min 1,99 klux 14 W/m
21.02.2015 08:43 3,0 C 2,9 C 6,0 C 88 % 997,0 hPa 0,0 l/m 15,6 km/h (3 Bft) W-SW22.5 250 0 min 3,66 klux 25 W/m
21.02.2015 08:49 3,0 C 3,1 C 6,0 C 88 % 997,0 hPa 0,0 l/m 20,0 km/h (4 Bft) W-SW22.5 240 0 min 3,11 klux 21 W/m
21.02.2015 08:54 3,1 C 3,1 C 6,0 C 88 % 997,0 hPa 0,0 l/m 14,5 km/h (3 Bft) SW22.5 235 0 min 3,69 klux 25 W/m
21.02.2015 08:59 3,1 C 3,2 C 6,0 C 88 % 997,0 hPa 0,0 l/m 15,4 km/h (3 Bft) SW22.5 225 0 min 3,60 klux 25 W/m
21.02.2015 09:03 3,2 C 3,5 C 6,0 C 88 % 997,0 hPa 0,0 l/m 16,2 km/h (3 Bft) SW45 230 0 min 3,60 klux 25 W/m
21.02.2015 09:08 3,2 C 3,5 C 6,0 C 88 % 997,0 hPa 0,0 l/m 18,1 km/h (3 Bft) SW45 230 0 min 4,16 klux 28 W/m
21.02.2015 09:14 3,2 C 3,6 C 6,0 C 88 % 998,0 hPa 0,0 l/m 17,6 km/h (3 Bft) SW45 225 0 min 3,43 klux 23 W/m
21.02.2015 09:19 3,3 C 3,8 C 6,0 C 88 % 998,0 hPa 0,0 l/m 16,0 km/h (3 Bft) SW45 230 0 min 5,24 klux 36 W/m
21.02.2015 09:24 3,3 C 4,2 C 6,0 C 88 % 998,0 hPa 0,0 l/m 18,4 km/h (3 Bft) SW22.5 220 0 min 7,18 klux 49 W/m
21.02.2015 09:28 3,5 C 4,6 C 6,0 C 88 % 998,0 hPa 0,0 l/m 19,5 km/h (3 Bft) W-SW22.5 240 0 min 7,92 klux 54 W/m
21.02.2015 09:33 3,6 C 5,2 C 6,0 C 87 % 998,0 hPa 0,0 l/m 24,1 km/h (4 Bft) SW67.5 220 0 min 9,8 klux 67 W/m
21.02.2015 09:38 3,6 C 5,5 C 6,0 C 88 % 998,0 hPa 0,0 l/m 15,6 km/h (3 Bft) SW67.5 225 0 min 7,59 klux 52 W/m
21.02.2015 09:44 3,6 C 5,6 C 6,0 C 88 % 998,0 hPa 0,0 l/m 19,6 km/h (3 Bft) W-SW45 240 0 min 8,15 klux 56 W/m
21.02.2015 09:49 3,8 C 5,4 C 6,0 C 87 % 998,0 hPa 0,0 l/m 16,7 km/h (3 Bft) SW67.5 225 0 min 5,89 klux 40 W/m
21.02.2015 09:54 3,8 C 5,2 C 5,9 C 87 % 998,0 hPa 0,0 l/m 24,8 km/h (4 Bft) W-SW22.5 240 0 min 9,5 klux 65 W/m
21.02.2015 09:59 3,9 C 5,4 C 6,0 C 87 % 998,0 hPa 0,0 l/m 19,5 km/h (3 Bft) SW45 235 0 min 10,1 klux 69 W/m
21.02.2015 10:03 4,0 C 5,9 C 6,0 C 87 % 998,0 hPa 0,0 l/m 23,2 km/h (4 Bft) SW45 235 0 min 13,8 klux 94 W/m
21.02.2015 10:09 4,0 C 7,1 C 6,0 C 86 % 998,0 hPa 0,0 l/m 20,0 km/h (4 Bft) SW22.5 235 6 min 26,4 klux 181 W/m
21.02.2015 10:14 4,2 C 7,4 C 6,0 C 86 % 998,0 hPa 0,0 l/m 16,6 km/h (3 Bft) W-SW45 240 0 min 14,4 klux 98 W/m
21.02.2015 10:19 4,2 C 6,7 C 6,0 C 85 % 998,0 hPa 0,0 l/m 16,1 km/h (3 Bft) SW45 230 0 min 6,60 klux 45 W/m
21.02.2015 10:24 4,1 C 6,2 C 6,0 C 86 % 998,0 hPa 0,0 l/m 17,6 km/h (3 Bft) SW22.5 235 0 min 6,91 klux 47 W/m
21.02.2015 10:28 4,2 C 6,1 C 6,0 C 86 % 998,0 hPa 0,0 l/m 18,0 km/h (3 Bft) SW45 230 0 min 5,91 klux 40 W/m
21.02.2015 10:33 4,2 C 6,0 C 6,0 C 86 % 998,0 hPa 0,0 l/m 22,3 km/h (4 Bft) W-SW22.5 250 0 min 8,65 klux 59 W/m
21.02.2015 10:38 4,3 C 6,1 C 6,0 C 86 % 998,0 hPa 0,0 l/m 24,7 km/h (4 Bft) W-SW22.5 245 0 min 12,7 klux 87 W/m
21.02.2015 10:44 4,3 C 6,6 C 6,0 C 86 % 998,0 hPa 0,0 l/m 19,5 km/h (3 Bft) SW45 235 0 min 17,6 klux 120 W/m
21.02.2015 10:49 4,5 C 7,2 C 6,0 C 86 % 998,0 hPa 0,0 l/m 23,3 km/h (4 Bft) W-SW45 240 0 min 17,3 klux 118 W/m
21.02.2015 10:54 4,5 C 7,8 C 5,9 C 84 % 998,0 hPa 0,0 l/m 25,1 km/h (4 Bft) SW45 235 0 min 19,3 klux 132 W/m
21.02.2015 10:59 4,6 C 8,9 C 5,9 C 83 % 998,0 hPa 0,0 l/m 23,8 km/h (4 Bft) W-SW45 240 0 min 20,4 klux 140 W/m
21.02.2015 11:03 4,7 C 9,4 C 5,9 C 83 % 998,0 hPa 0,0 l/m 20,0 km/h (4 Bft) W-SW22.5 240 0 min 18,6 klux 127 W/m
21.02.2015 11:09 4,8 C 8,9 C 5,9 C 83 % 998,0 hPa 0,0 l/m 23,0 km/h (4 Bft) SW45 230 0 min 27,0 klux 185 W/m
21.02.2015 11:14 4,9 C 9,5 C 6,0 C 83 % 998,0 hPa 0,0 l/m 22,7 km/h (4 Bft) W-SW22.5 245 0 min 15,2 klux 104 W/m
21.02.2015 11:19 4,9 C 8,2 C 5,9 C 83 % 998,0 hPa 0,0 l/m 26,0 km/h (4 Bft) W-SW45 245 0 min 17,9 klux 122 W/m
21.02.2015 11:24 4,9 C 8,5 C 5,9 C 83 % 998,0 hPa 0,0 l/m 19,1 km/h (3 Bft) SW45 225 0 min 24,9 klux 170 W/m
21.02.2015 11:28 5,1 C 8,8 C 5,9 C 83 % 998,0 hPa 0,0 l/m 26,5 km/h (4 Bft) SW22.5 230 0 min 16,1 klux 110 W/m
21.02.2015 11:33 5,1 C 9,1 C 6,0 C 83 % 998,0 hPa 0,0 l/m 24,0 km/h (4 Bft) SW22.5 235 0 min 16,6 klux 114 W/m
21.02.2015 11:38 5,3 C 9,7 C 5,9 C 81 % 998,0 hPa 0,0 l/m 25,2 km/h (4 Bft) W-SW45 240 0 min 18,5 klux 127 W/m
21.02.2015 11:44 5,3 C 9,3 C 6,0 C 81 % 998,0 hPa 0,0 l/m 23,0 km/h (4 Bft) W-SW45 240 0 min 11,1 klux 76 W/m
21.02.2015 11:49 5,2 C 6,9 C 6,0 C 81 % 999,0 hPa 0,0 l/m 24,8 km/h (4 Bft) SW45 225 0 min 5,56 klux 38 W/m
21.02.2015 11:54 4,8 C 6,5 C 6,0 C 82 % 999,0 hPa 0,0 l/m 35,4 km/h (5 Bft) SW45 230 0 min 20,3 klux 139 W/m
21.02.2015 11:59 5,1 C 7,8 C 6,0 C 82 % 999,0 hPa 0,0 l/m 28,2 km/h (5 Bft) W-SW67.5 240 5 min 56,5 klux 386 W/m
21.02.2015 12:03 5,5 C 11,2 C 6,0 C 81 % 999,0 hPa 0,0 l/m 28,8 km/h (5 Bft) W-SW45 240 4 min 51,4 klux 352 W/m
21.02.2015 12:09 5,6 C 10,9 C 6,0 C 80 % 999,0 hPa 0,0 l/m 26,1 km/h (4 Bft) SW67.5 225 0 min 29,3 klux 200 W/m
21.02.2015 12:14 5,7 C 11,1 C 6,0 C 79 % 999,0 hPa 0,0 l/m 28,5 km/h (5 Bft) SW45 225 0 min 26,4 klux 181 W/m
21.02.2015 12:19 5,8 C 10,1 C 6,0 C 79 % 998,0 hPa 0,0 l/m 29,9 km/h (5 Bft) W-SW22.5 240 0 min 21,7 klux 148 W/m
21.02.2015 12:23 5,9 C 11,9 C 6,0 C 79 % 999,0 hPa 0,0 l/m 29,4 km/h (5 Bft) W-SW67.5 240 4 min 51,4 klux 352 W/m
21.02.2015 12:28 6,2 C 13,9 C 6,0 C 77 % 999,0 hPa 0,0 l/m 27,3 km/h (5 Bft) SW45 235 5 min 60,3 klux 412 W/m
21.02.2015 12:33 6,2 C 14,0 C 6,0 C 75 % 998,0 hPa 0,0 l/m 26,0 km/h (4 Bft) S-SW67.5 210 0 min 25,5 klux 174 W/m
21.02.2015 12:39 6,1 C 10,8 C 6,0 C 76 % 998,0 hPa 0,0 l/m 31,1 km/h (5 Bft) SW45 230 0 min 25,5 klux 174 W/m
21.02.2015 12:44 6,0 C 9,9 C 6,0 C 77 % 998,0 hPa 0,0 l/m 26,9 km/h (4 Bft) SW45 230 0 min 18,7 klux 128 W/m
21.02.2015 12:49 6,1 C 9,8 C 6,0 C 76 % 998,0 hPa 0,0 l/m 22,1 km/h (4 Bft) SW67.5 230 0 min 28,0 klux 192 W/m
21.02.2015 12:54 6,1 C 10,9 C 6,0 C 75 % 998,0 hPa 0,0 l/m 24,5 km/h (4 Bft) W-SW22.5 250 5 min 45,2 klux 309 W/m
21.02.2015 12:58 6,4 C 11,4 C 6,0 C 75 % 998,0 hPa 0,0 l/m 28,3 km/h (5 Bft) W-SW45 240 0 min 28,4 klux 194 W/m
21.02.2015 13:04 6,0 C 11,4 C 6,0 C 75 % 998,0 hPa 0,0 l/m 32,9 km/h (5 Bft) W-SW45 240 0 min 8,46 klux 58 W/m
21.02.2015 13:09 5,6 C 8,0 C 6,0 C 77 % 998,0 hPa 0,0 l/m 30,1 km/h (5 Bft) W-SW22.5 250 0 min 5,30 klux 36 W/m
21.02.2015 13:14 4,6 C 6,5 C 6,0 C 80 % 998,0 hPa 0,0 l/m 41,0 km/h (6 Bft) W-SW22.5 250 0 min 3,70 klux 25 W/m
21.02.2015 13:19 3,9 C 3,9 C 6,0 C 82 % 999,0 hPa 0,0 l/m 27,1 km/h (5 Bft) SW67.5 220 0 min 5,90 klux 40 W/m
21.02.2015 13:23 3,4 C 3,6 C 6,0 C 86 % 999,0 hPa 0,0 l/m 24,1 km/h (4 Bft) SW45 230 0 min 14,1 klux 96 W/m
21.02.2015 13:28 3,6 C 7,4 C 6,0 C 87 % 999,0 hPa 0,0 l/m 15,9 km/h (3 Bft) SW45 215 5 min 44,2 klux 302 W/m
21.02.2015 13:33 3,6 C 9,6 C 6,0 C 87 % 999,0 hPa 0,0 l/m 20,4 km/h (4 Bft) SW45 215 5 min 45,1 klux 308 W/m
21.02.2015 13:39 4,3 C 11,3 C 6,0 C 85 % 999,0 hPa 0,0 l/m 23,6 km/h (4 Bft) SW45 215 6 min 44,9 klux 307 W/m
21.02.2015 13:44 4,3 C 12,4 C 6,0 C 85 % 999,0 hPa 0,0 l/m 20,9 km/h (4 Bft) SW45 220 5 min 44,5 klux 304 W/m
21.02.2015 13:49 4,8 C 14,3 C 6,0 C 84 % 999,0 hPa 0,0 l/m 23,5 km/h (4 Bft) SW67.5 225 5 min 44,1 klux 302 W/m
21.02.2015 13:54 5,2 C 14,5 C 6,1 C 82 % 999,0 hPa 0,0 l/m 25,6 km/h (4 Bft) SW67.5 215 5 min 43,9 klux 300 W/m
21.02.2015 13:58 5,3 C 15,0 C 6,1 C 81 % 998,0 hPa 0,0 l/m 24,1 km/h (4 Bft) SW45 225 4 min 43,6 klux 298 W/m
21.02.2015 14:04 5,3 C 15,6 C 6,1 C 81 % 998,0 hPa 0,0 l/m 22,5 km/h (4 Bft) SW45 215 6 min 43,2 klux 295 W/m
21.02.2015 14:09 5,7 C 16,2 C 6,1 C 79 % 999,0 hPa 0,0 l/m 20,8 km/h (4 Bft) SW45 220 5 min 43,5 klux 298 W/m
21.02.2015 14:14 6,0 C 16,9 C 6,1 C 79 % 999,0 hPa 0,0 l/m 20,1 km/h (4 Bft) SW45 225 5 min 43,3 klux 296 W/m
21.02.2015 14:19 6,3 C 18,3 C 6,1 C 77 % 998,0 hPa 0,0 l/m 19,8 km/h (3 Bft) S-SW67.5 200 5 min 42,7 klux 292 W/m
21.02.2015 14:23 6,4 C 18,1 C 6,2 C 76 % 998,0 hPa 0,0 l/m 18,9 km/h (3 Bft) S-SW67.5 210 4 min 43,2 klux 295 W/m
21.02.2015 14:28 6,7 C 18,4 C 6,2 C 76 % 998,0 hPa 0,0 l/m 18,3 km/h (3 Bft) S-SW45 210 5 min 42,2 klux 289 W/m
21.02.2015 14:33 6,8 C 18,1 C 6,2 C 78 % 998,0 hPa 0,0 l/m 20,2 km/h (4 Bft) SW45 215 5 min 45,3 klux 310 W/m
21.02.2015 14:39 6,8 C 15,4 C 6,2 C 75 % 998,0 hPa 0,0 l/m 28,1 km/h (5 Bft) SW67.5 220 0 min 26,6 klux 182 W/m
21.02.2015 14:44 6,6 C 13,7 C 6,3 C 75 % 999,0 hPa 0,0 l/m 27,4 km/h (5 Bft) SW45 220 0 min 21,5 klux 147 W/m
21.02.2015 14:49 6,3 C 10,5 C 6,3 C 75 % 999,0 hPa 0,0 l/m 23,7 km/h (4 Bft) S-SW67.5 210 0 min 11,8 klux 81 W/m
21.02.2015 14:53 6,1 C 8,9 C 6,3 C 75 % 999,0 hPa 0,0 l/m 22,8 km/h (4 Bft) SW22.5 220 0 min 19,5 klux 133 W/m
21.02.2015 14:58 6,2 C 8,8 C 6,3 C 77 % 999,0 hPa 0,0 l/m 22,9 km/h (4 Bft) SW45 220 5 min 37,0 klux 253 W/m
21.02.2015 15:03 6,2 C 11,6 C 6,4 C 77 % 999,0 hPa 0,0 l/m 22,6 km/h (4 Bft) SW45 225 5 min 43,1 klux 295 W/m
21.02.2015 15:09 7,0 C 13,1 C 6,4 C 73 % 999,0 hPa 0,0 l/m 23,7 km/h (4 Bft) SW45 230 6 min 42,8 klux 293 W/m
21.02.2015 15:14 6,6 C 12,8 C 6,4 C 74 % 999,0 hPa 0,0 l/m 25,6 km/h (4 Bft) W-SW45 250 0 min 6,06 klux 41 W/m
21.02.2015 15:18 4,6 C 7,7 C 6,5 C 79 % 999,0 hPa 0,0 l/m 31,8 km/h (5 Bft) NW22.5 310 0 min 2,58 klux 18 W/m
21.02.2015 15:23 4,2 C 5,5 C 6,4 C 80 % 999,0 hPa 0,0 l/m 29,3 km/h (5 Bft) NW22.5 320 0 min 8,52 klux 58 W/m
21.02.2015 15:28 4,2 C 6,7 C 6,5 C 82 % 999,0 hPa 0,0 l/m 21,6 km/h (4 Bft) W-NW45 295 0 min 18,5 klux 127 W/m
21.02.2015 15:34 4,1 C 6,5 C 6,5 C 83 % 999,0 hPa 0,0 l/m 21,1 km/h (4 Bft) NW45 315 0 min 12,0 klux 82 W/m
21.02.2015 15:39 4,1 C 6,2 C 6,5 C 82 % 999,0 hPa 0,0 l/m 22,5 km/h (4 Bft) NW45 305 0 min 11,7 klux 80 W/m
21.02.2015 15:44 3,9 C 5,4 C 6,4 C 82 % 999,0 hPa 0,0 l/m 28,6 km/h (5 Bft) NW22.5 305 0 min 8,52 klux 58 W/m
21.02.2015 15:49 3,8 C 4,9 C 6,4 C 83 % 999,0 hPa 0,0 l/m 22,5 km/h (4 Bft) W-NW22.5 300 0 min 4,90 klux 34 W/m
21.02.2015 15:53 3,7 C 4,1 C 6,4 C 83 % 999,0 hPa 0,0 l/m 26,8 km/h (4 Bft) W-NW22.5 295 0 min 4,69 klux 32 W/m
21.02.2015 15:58 3,5 C 3,9 C 6,4 C 84 % 999,0 hPa 0,0 l/m 26,5 km/h (4 Bft) W-NW22.5 290 0 min 8,28 klux 57 W/m
21.02.2015 16:03 3,5 C 4,1 C 6,4 C 85 % 999,0 hPa 0,0 l/m 16,1 km/h (3 Bft) W-NW22.5 300 0 min 8,28 klux 57 W/m
21.02.2015 16:09 3,5 C 4,0 C 6,4 C 85 % 999,0 hPa 0,0 l/m 19,1 km/h (3 Bft) W-NW22.5 300 0 min 7,29 klux 50 W/m
21.02.2015 16:14 3,5 C 3,8 C 6,4 C 85 % 999,0 hPa 0,0 l/m 19,5 km/h (3 Bft) W-NW45 295 0 min 5,53 klux 38 W/m
21.02.2015 16:18 3,5 C 3,6 C 6,4 C 85 % 1000,1 hPa 0,0 l/m 21,0 km/h (4 Bft) W-NW22.5 295 0 min 3,83 klux 26 W/m
21.02.2015 16:23 3,5 C 3,6 C 6,4 C 85 % 1000,1 hPa 0,0 l/m 22,6 km/h (4 Bft) NW45 305 0 min 3,93 klux 27 W/m
21.02.2015 16:28 3,5 C 3,5 C 6,4 C 85 % 1000,1 hPa 0,0 l/m 20,4 km/h (4 Bft) W-NW45 285 0 min 3,05 klux 21 W/m
21.02.2015 16:34 3,4 C 3,4 C 6,4 C 86 % 1000,1 hPa 0,0 l/m 25,0 km/h (4 Bft) W-NW22.5 295 0 min 3,47 klux 24 W/m
21.02.2015 16:39 3,4 C 3,5 C 6,3 C 86 % 1000,1 hPa 0,0 l/m 22,9 km/h (4 Bft) W22.5 280 0 min 6,01 klux 41 W/m
21.02.2015 16:44 3,4 C 4,0 C 6,4 C 86 % 1000,1 hPa 0,0 l/m 21,8 km/h (4 Bft) W22.5 270 0 min 11,4 klux 78 W/m
21.02.2015 16:49 3,6 C 5,3 C 6,3 C 87 % 1000,0 hPa 0,0 l/m 14,8 km/h (3 Bft) W45 260 0 min 12,4 klux 85 W/m
21.02.2015 16:53 3,8 C 5,4 C 6,3 C 86 % 1000,0 hPa 0,0 l/m 8,4 km/h (2 Bft) SW45 225 0 min 7,38 klux 50 W/m
21.02.2015 16:58 3,8 C 4,5 C 6,3 C 86 % 1000,0 hPa 0,0 l/m 8,1 km/h (2 Bft) SW22.5 230 0 min 7,38 klux 50 W/m
21.02.2015 17:03 3,8 C 3,6 C 6,3 C 86 % 1000,0 hPa 0,0 l/m 7,9 km/h (2 Bft) SW22.5 215 0 min 4,07 klux 28 W/m
21.02.2015 17:09 3,7 C 2,8 C 6,3 C 86 % 1000,0 hPa 0,0 l/m 9,1 km/h (2 Bft) SW22.5 220 0 min 3,17 klux 22 W/m
21.02.2015 17:14 3,7 C 2,5 C 6,3 C 86 % 1000,0 hPa 0,0 l/m 11,5 km/h (2 Bft) S-SW22.5 200 0 min 2,93 klux 20 W/m
21.02.2015 17:18 3,6 C 2,2 C 6,3 C 86 % 1000,0 hPa 0,0 l/m 12,3 km/h (2 Bft) S-SW45 195 0 min 1,72 klux 12 W/m
21.02.2015 17:23 3,5 C 2,1 C 6,3 C 86 % 1000,1 hPa 0,0 l/m 12,4 km/h (2 Bft) S22.5 190 0 min 1,50 klux 10 W/m
21.02.2015 17:28 3,5 C 2,1 C 6,3 C 86 % 1000,1 hPa 0,4 l/m 13,2 km/h (3 Bft) S22.5 190 0 min 1,39 klux 10 W/m
21.02.2015 17:34 3,5 C 2,2 C 6,3 C 86 % 1000,1 hPa 0,0 l/m 10,1 km/h (2 Bft) S22.5 190 0 min 1,36 klux 9 W/m
21.02.2015 17:39 3,5 C 2,1 C 6,3 C 86 % 1000,1 hPa 0,0 l/m 10,9 km/h (2 Bft) S22.5 185 0 min 1,13 klux 8 W/m
21.02.2015 17:44 3,4 C 1,5 C 6,3 C 85 % 1000,1 hPa 0,0 l/m 10,9 km/h (2 Bft) S45 190 0 min 889 lux 6 W/m
21.02.2015 17:48 3,4 C 1,0 C 6,3 C 85 % 1000,1 hPa 0,0 l/m 10,9 km/h (2 Bft) S45 190 0 min 776 lux 5 W/m
21.02.2015 17:53 3,3 C 0,5 C 6,3 C 85 % 1000,1 hPa 0,0 l/m 10,6 km/h (2 Bft) S-SW22.5 200 0 min 562 lux 4 W/m
21.02.2015 17:58 3,2 C 0,2 C 6,3 C 85 % 1000,1 hPa 0,0 l/m 16,2 km/h (3 Bft) S-SW45 195 0 min 385 lux 0 W/m
21.02.2015 18:04 3,1 C 0,3 C 6,2 C 86 % 1000,1 hPa 0,0 l/m 13,0 km/h (3 Bft) SW22.5 220 0 min 309 lux 0 W/m
21.02.2015 18:09 3,1 C 0,4 C 6,3 C 86 % 1000,1 hPa 0,0 l/m 13,5 km/h (3 Bft) SW22.5 220 0 min 185 lux 0 W/m
21.02.2015 18:13 2,9 C 0,5 C 6,3 C 86 % 1001,1 hPa 0,0 l/m 10,6 km/h (2 Bft) SW22.5 225 0 min 99 lux 0 W/m
21.02.2015 18:18 2,7 C 0,4 C 6,2 C 86 % 1001,1 hPa 0,0 l/m 11,1 km/h (2 Bft) SW22.5 235 0 min 30 lux 0 W/m
21.02.2015 18:23 2,7 C 0,3 C 6,2 C 87 % 1001,1 hPa 0,0 l/m 8,7 km/h (2 Bft) SW 235 0 min 19 lux 0 W/m
21.02.2015 18:29 2,5 C 0,1 C 6,2 C 87 % 1001,1 hPa 0,0 l/m 8,8 km/h (2 Bft) SW22.5 230 0 min 6 lux 0 W/m
21.02.2015 18:34 2,3 C 0,2 C 6,2 C 87 % 1001,1 hPa 0,0 l/m 10,0 km/h (2 Bft) SW22.5 225 0 min 2 lux 0 W/m
21.02.2015 18:39 2,3 C 0,2 C 6,2 C 87 % 1001,1 hPa 0,0 l/m 9,6 km/h (2 Bft) SW22.5 225 0 min 0 lux 0 W/m
21.02.2015 18:44 2,3 C -0,1 C 6,2 C 88 % 1001,1 hPa 0,0 l/m 6,5 km/h (2 Bft) SW 230 0 min 0 lux 0 W/m
21.02.2015 18:48 2,3 C 0,0 C 6,2 C 88 % 1001,1 hPa 0,0 l/m 6,1 km/h (2 Bft) SW22.5 225 0 min 0 lux 0 W/m
21.02.2015 18:53 2,3 C 0,1 C 6,2 C 88 % 1001,1 hPa 0,0 l/m 6,5 km/h (2 Bft) SW22.5 230 0 min 0 lux 0 W/m
21.02.2015 18:58 2,3 C 0,6 C 6,1 C 88 % 1001,1 hPa 0,0 l/m 10,5 km/h (2 Bft) SW22.5 225 0 min 0 lux 0 W/m
21.02.2015 19:04 2,5 C 0,8 C 6,2 C 89 % 1001,1 hPa 0,0 l/m 11,3 km/h (2 Bft) W-SW22.5 240 0 min 0 lux 0 W/m
21.02.2015 19:09 2,6 C 0,9 C 6,1 C 89 % 1001,1 hPa 0,0 l/m 11,3 km/h (2 Bft) W-SW22.5 240 0 min 0 lux 0 W/m
21.02.2015 19:13 2,6 C 1,2 C 6,1 C 89 % 1001,1 hPa 0,0 l/m 11,5 km/h (2 Bft) SW22.5 235 0 min 0 lux 0 W/m
21.02.2015 19:18 2,8 C 1,5 C 6,1 C 89 % 1001,1 hPa 0,0 l/m 16,5 km/h (3 Bft) SW22.5 235 0 min 0 lux 0 W/m
21.02.2015 19:23 2,9 C 1,6 C 6,1 C 88 % 1001,1 hPa 0,0 l/m 11,2 km/h (2 Bft) SW45 230 0 min 0 lux 0 W/m
21.02.2015 19:29 2,9 C 1,6 C 6,1 C 88 % 1001,1 hPa 0,0 l/m 12,7 km/h (3 Bft) SW22.5 235 0 min 0 lux 0 W/m
21.02.2015 19:34 2,9 C 1,7 C 6,1 C 88 % 1001,1 hPa 0,0 l/m 12,2 km/h (2 Bft) SW22.5 230 0 min 0 lux 0 W/m
21.02.2015 19:39 2,9 C 1,7 C 6,1 C 87 % 1001,1 hPa 0,0 l/m 13,0 km/h (3 Bft) SW22.5 230 0 min 0 lux 0 W/m
21.02.2015 19:44 2,9 C 1,7 C 6,1 C 87 % 1001,1 hPa 0,0 l/m 14,6 km/h (3 Bft) W-SW22.5 240 0 min 0 lux 0 W/m
21.02.2015 19:48 3,0 C 1,9 C 6,1 C 87 % 1002,1 hPa 0,0 l/m 15,1 km/h (3 Bft) W-SW22.5 240 0 min 0 lux 0 W/m
21.02.2015 19:53 3,1 C 2,1 C 6,0 C 87 % 1002,1 hPa 0,0 l/m 11,9 km/h (2 Bft) SW22.5 235 0 min 0 lux 0 W/m
21.02.2015 19:58 3,1 C 2,1 C 6,0 C 87 % 1002,1 hPa 0,0 l/m 10,1 km/h (2 Bft) SW22.5 235 0 min 0 lux 0 W/m
21.02.2015 20:04 3,1 C 2,1 C 6,0 C 87 % 1002,1 hPa 0,0 l/m 7,8 km/h (2 Bft) W-SW22.5 240 0 min 0 lux 0 W/m
21.02.2015 20:09 3,1 C 2,0 C 6,0 C 87 % 1002,1 hPa 0,0 l/m 8,9 km/h (2 Bft) SW22.5 225 0 min 0 lux 0 W/m
21.02.2015 20:13 3,2 C 2,3 C 6,0 C 87 % 1002,1 hPa 0,0 l/m 11,6 km/h (2 Bft) SW22.5 230 0 min 0 lux 0 W/m
21.02.2015 20:18 3,2 C 2,3 C 5,9 C 87 % 1002,1 hPa 0,0 l/m 13,4 km/h (3 Bft) W-SW22.5 240 0 min 0 lux 0 W/m
21.02.2015 20:23 3,1 C 2,0 C 6,0 C 86 % 1002,1 hPa 0,0 l/m 14,0 km/h (3 Bft) W-SW45 245 0 min 0 lux 0 W/m
21.02.2015 20:29 3,1 C 1,9 C 6,0 C 86 % 1002,1 hPa 0,0 l/m 14,3 km/h (3 Bft) W-SW22.5 245 0 min 0 lux 0 W/m
21.02.2015 20:34 3,2 C 1,9 C 5,9 C 86 % 1002,1 hPa 0,0 l/m 14,8 km/h (3 Bft) W-SW22.5 240 0 min 0 lux 0 W/m
21.02.2015 20:39 3,2 C 2,0 C 5,9 C 86 % 1002,1 hPa 0,0 l/m 13,7 km/h (3 Bft) W-SW22.5 255 0 min 0 lux 0 W/m
21.02.2015 20:43 3,2 C 2,1 C 5,9 C 86 % 1002,1 hPa 0,0 l/m 11,8 km/h (2 Bft) W22.5 260 0 min 0 lux 0 W/m
21.02.2015 20:48 3,2 C 2,1 C 5,9 C 86 % 1002,1 hPa 0,0 l/m 11,3 km/h (2 Bft) W22.5 260 0 min 0 lux 0 W/m
21.02.2015 20:53 3,1 C 2,0 C 5,9 C 86 % 1002,1 hPa 0,0 l/m 11,3 km/h (2 Bft) W22.5 260 0 min 0 lux 0 W/m
21.02.2015 20:59 3,1 C 1,8 C 5,9 C 86 % 1002,1 hPa 0,0 l/m 12,2 km/h (2 Bft) W-SW22.5 250 0 min 0 lux 0 W/m
21.02.2015 21:04 3,1 C 1,8 C 5,9 C 86 % 1002,1 hPa 0,0 l/m 12,6 km/h (3 Bft) W-SW22.5 245 0 min 0 lux 0 W/m
21.02.2015 21:08 3,1 C 1,7 C 5,9 C 86 % 1002,1 hPa 0,0 l/m 12,9 km/h (3 Bft) W-SW22.5 250 0 min 0 lux 0 W/m
21.02.2015 21:13 3,0 C 1,7 C 5,9 C 87 % 1002,1 hPa 0,0 l/m 10,1 km/h (2 Bft) W-SW22.5 245 0 min 0 lux 0 W/m
21.02.2015 21:18 3,0 C 1,7 C 5,9 C 87 % 1002,1 hPa 0,0 l/m 12,7 km/h (3 Bft) SW22.5 235 0 min 0 lux 0 W/m
21.02.2015 21:24 3,0 C 1,8 C 5,8 C 87 % 1002,1 hPa 0,0 l/m 15,0 km/h (3 Bft) W-SW22.5 245 0 min 0 lux 0 W/m
21.02.2015 21:29 3,0 C 1,9 C 5,8 C 87 % 1002,1 hPa 0,0 l/m 14,3 km/h (3 Bft) W-SW22.5 240 0 min 0 lux 0 W/m
21.02.2015 21:34 3,0 C 1,9 C 5,9 C 87 % 1002,1 hPa 0,0 l/m 12,3 km/h (2 Bft) W-SW22.5 240 0 min 0 lux 0 W/m
21.02.2015 21:39 3,0 C 2,0 C 5,8 C 87 % 1003,1 hPa 0,0 l/m 11,6 km/h (2 Bft) W-SW22.5 245 0 min 0 lux 0 W/m
21.02.2015 21:43 2,9 C 2,0 C 5,9 C 87 % 1003,1 hPa 0,0 l/m 15,8 km/h (3 Bft) SW22.5 235 0 min 0 lux 0 W/m
21.02.2015 21:48 3,0 C 2,1 C 5,8 C 87 % 1003,1 hPa 0,0 l/m 14,6 km/h (3 Bft) W-SW22.5 240 0 min 0 lux 0 W/m
21.02.2015 21:53 2,9 C 2,0 C 5,8 C 87 % 1003,1 hPa 0,0 l/m 14,9 km/h (3 Bft) SW22.5 235 0 min 0 lux 0 W/m
21.02.2015 21:59 2,9 C 2,0 C 5,8 C 87 % 1003,1 hPa 0,0 l/m 13,8 km/h (3 Bft) W-SW22.5 245 0 min 0 lux 0 W/m
21.02.2015 22:04 2,9 C 1,9 C 5,8 C 88 % 1003,1 hPa 0,0 l/m 12,4 km/h (2 Bft) W-SW22.5 240 0 min 0 lux 0 W/m
21.02.2015 22:08 2,9 C 2,0 C 5,8 C 87 % 1003,1 hPa 0,0 l/m 11,5 km/h (2 Bft) SW22.5 235 0 min 0 lux 0 W/m
21.02.2015 22:13 2,9 C 1,9 C 5,8 C 87 % 1003,1 hPa 0,0 l/m 13,1 km/h (3 Bft) SW22.5 235 0 min 0 lux 0 W/m
21.02.2015 22:18 2,9 C 1,9 C 5,8 C 88 % 1003,1 hPa 0,0 l/m 13,6 km/h (3 Bft) SW22.5 235 0 min 0 lux 0 W/m
21.02.2015 22:24 2,9 C 1,9 C 5,8 C 88 % 1003,1 hPa 0,0 l/m 10,4 km/h (2 Bft) SW22.5 235 0 min 0 lux 0 W/m
21.02.2015 22:29 2,8 C 1,9 C 5,8 C 88 % 1003,1 hPa 0,0 l/m 16,5 km/h (3 Bft) SW45 235 0 min 0 lux 0 W/m
21.02.2015 22:34 2,9 C 1,9 C 5,7 C 88 % 1003,1 hPa 0,0 l/m 18,3 km/h (3 Bft) W-SW45 245 0 min 0 lux 0 W/m
21.02.2015 22:38 2,8 C 1,9 C 5,8 C 88 % 1003,1 hPa 0,0 l/m 13,5 km/h (3 Bft) SW22.5 235 0 min 0 lux 0 W/m
21.02.2015 22:43 2,8 C 1,9 C 5,7 C 88 % 1003,1 hPa 0,0 l/m 15,5 km/h (3 Bft) W-SW22.5 240 0 min 0 lux 0 W/m
21.02.2015 22:48 2,9 C 1,9 C 5,7 C 88 % 1003,1 hPa 0,0 l/m 13,6 km/h (3 Bft) SW22.5 230 0 min 0 lux 0 W/m
21.02.2015 22:54 2,8 C 1,9 C 5,7 C 88 % 1003,1 hPa 0,0 l/m 15,6 km/h (3 Bft) SW22.5 225 0 min 0 lux 0 W/m
21.02.2015 22:59 2,8 C 1,9 C 5,7 C 88 % 1003,1 hPa 0,0 l/m 13,7 km/h (3 Bft) SW45 235 0 min 0 lux 0 W/m
21.02.2015 23:03 2,8 C 1,9 C 5,7 C 88 % 1003,1 hPa 0,0 l/m 16,6 km/h (3 Bft) W-SW22.5 240 0 min 0 lux 0 W/m
21.02.2015 23:08 2,8 C 1,8 C 5,7 C 88 % 1003,1 hPa 0,0 l/m 11,8 km/h (2 Bft) SW45 230 0 min 0 lux 0 W/m
21.02.2015 23:13 2,8 C 1,9 C 5,7 C 88 % 1003,1 hPa 0,0 l/m 16,8 km/h (3 Bft) W-SW22.5 240 0 min 0 lux 0 W/m
21.02.2015 23:19 2,8 C 1,9 C 5,7 C 88 % 1003,1 hPa 0,0 l/m 16,2 km/h (3 Bft) W-SW22.5 240 0 min 0 lux 0 W/m
21.02.2015 23:24 2,8 C 1,9 C 5,7 C 88 % 1003,1 hPa 0,0 l/m 15,0 km/h (3 Bft) W-SW22.5 240 0 min 0 lux 0 W/m
21.02.2015 23:29 2,7 C 1,9 C 5,7 C 89 % 1003,1 hPa 0,0 l/m 12,8 km/h (3 Bft) W-SW22.5 240 0 min 0 lux 0 W/m
21.02.2015 23:34 2,7 C 1,9 C 5,7 C 89 % 1003,1 hPa 0,0 l/m 12,3 km/h (2 Bft) SW45 230 0 min 0 lux 0 W/m
21.02.2015 23:38 2,7 C 1,9 C 5,7 C 89 % 1004,1 hPa 0,0 l/m 15,2 km/h (3 Bft) SW45 235 0 min 0 lux 0 W/m
21.02.2015 23:43 2,7 C 1,8 C 5,7 C 89 % 1004,1 hPa 0,0 l/m 12,6 km/h (3 Bft) W-SW45 240 0 min 0 lux 0 W/m
21.02.2015 23:48 2,7 C 1,6 C 5,7 C 89 % 1004,1 hPa 0,0 l/m 14,2 km/h (3 Bft) SW22.5 235 0 min 0 lux 0 W/m
21.02.2015 23:54 2,6 C 1,4 C 5,7 C 89 % 1004,1 hPa 0,0 l/m 15,5 km/h (3 Bft) SW22.5 235 0 min 0 lux 0 W/m
21.02.2015 23:59 2,6 C 1,2 C 5,7 C 89 % 1004,1 hPa 0,0 l/m 16,1 km/h (3 Bft) W-SW45 250 0 min 0 lux 0 W/m
_ Min-Zeit 07:54 18:44 22:34 15:09 04:18 - 18:48 - - - - -
Minimum _ 2,3 C -0,1 C 5,7 C 73 % 994,0 hPa - 6,1 km/h (2 Bft) - - - - -
_ Max-Zeit 15:09 14:28 15:18 08:09 23:54 02:43 05:34 - - 10:09 12:28 12:28
Maximum _ 7,0 C 18,4 C 6,5 C 89 % 1004,1 hPa 0,7 l/m 44,7 km/h
W-SW (6 Bft)
- - 6 min 60,3 klux 412 W/m
Durchschnitt _ 4,2 C 4,8 C 6,1 C 85 % 998,5 hPa #3,2 l/m 19,7 km/h (3 Bft) SW - #1:55 h 6,88 klux 110 W/m